Hourly Weather Roundup
Issued by NWS Central Illinois

Home | Current Version | Previous Version | Text Only | Print | Product List | Glossary On
Versions: 1 2 3 4 5 6 7 8 9 10 11 12 13 14 15 16 17 18 19 20 21 22 23 24 25 26 27 28 29 30 31 32 33 34 35 36 37 38 39 40 41 42 43 44 45 46 47 48 49 50
000
NZUS43 KILX 290810
HWRILX

AREA WEATHER ROUNDUP
NATIONAL WEATHER SERVICE, LINCOLN IL
300 AM CDT WED JUL 29 2015


CITY           SKY/WX    TMP DP  RH WIND       PRES   REMARKS
BLOOMINGTON    TSTM      73  73 100 NE9       29.99F FOG
CHAMPAIGN      MOCLDY    74  71  91 SW5       29.97R
DANVILLE       MOCLDY    72  72  99 CALM      29.93S FOG
DECATUR        MOCLDY    76  72  87 CALM      29.95S
EFFINGHAM      PTCLDY    75  72  91 CALM      29.97R FOG
FLORA          PTCLDY    74  73  96 CALM      29.95R
GALESBURG      CLOUDY    78  76  96 W3        29.95R FOG
JACKSONVILLE   PTCLDY    81  77  89 S5        29.93F HX  88
LACON          CLOUDY    73  70  92 SE5       29.93F
LAWRENCEVILLE  PTCLDY    75  73  93 S3        29.95S
LITCHFIELD     PTCLDY    75  73  92 CALM      29.96S FOG
$$


CITY           SKY/WX    TMP DP  RH WIND       PRES   REMARKS
LINCOLN        PTCLDY    77  74  91 N6        29.95R THUNDER
MACOMB         CLOUDY    76  76  99 W6        29.95F FOG
MATTOON        MOCLDY    76  72  87 S3        29.95R
MT CARMEL AP   PTCLDY    77  72  83 CALM      29.95S
OLNEY-NOBLE AP PTCLDY    73  72  94 CALM      29.95S
PARIS          PTCLDY    72  71  99 CALM      29.97R
PEORIA         MOCLDY    76  72  87 S6        29.93S
PONTIAC        TSTM      74  73  99 SW13G18   29.98S
RANTOUL        MOCLDY    76  74  93 CALM      29.96R
ROBINSON       PTCLDY    74  73  96 CALM      29.96R
SPRINGFIELD    PTCLDY    80  75  84 SW3       29.94F HX  85
TAYLORVILLE    MOCLDY    75  73  94 SW3       29.95S
$$

...REGIONAL REPORTS...


CITY           SKY/WX    TMP DP  RH WIND       PRES   REMARKS
CHICAGO O`HARE CLOUDY    78  71  79 SW6       29.92R HX  80
KANKAKEE       TSTM      76  72  88 W12G17    29.96S
MOLINE         CLOUDY    77  72  84 W8        29.95R
MOUNT STERLING NOT AVBL
MOUNT VERNON   CLEAR     75  70  83 CALM      29.95R
PITTSFIELD     MOCLDY    82  77  83 CALM      29.95F HX  91
QUINCY         CLOUDY    76  73  91 NW5       29.96R
ROCKFORD       CLOUDY    74  70  87 SW5       29.95R
$$


CITY           SKY/WX    TMP DP  RH WIND       PRES   REMARKS
BURLINGTON     CLOUDY    73  71  93 NW8       29.96R
CEDAR RAPIDS   RAIN      71  71 100 W9        29.98R
DES MOINES     CLOUDY    73  70  90 SW3       30.01S
KIRKSVILLE     TSTM      74  66  76 NW18G24   30.01R
OTTUMWA        RAIN      70  70 100 W6        29.98R FOG
ST LOUIS       PTCLDY    85  76  74 W7        29.95F HX  94
$$


CITY           SKY/WX    TMP DP  RH WIND       PRES   REMARKS
TERRE HAUTE    CLEAR     75  74  96 CALM      29.95S FOG
EVANSVILLE     PTCLDY    75  73  93 SW6       29.95F
INDIANAPOLIS   PTCLDY    77  71  82 SE3       29.94F
LAFAYETTE      MOCLDY    73  72  96 CALM      29.94S FOG
MADISON        MOCLDY    78  73  84 CALM      29.91R HX  81
MILWAUKEE      MOCLDY    76  70  82 S3        29.90S
$$




USA.gov is the U.S. government's official web portal to all federal, state and local government web resources and services.